EDT,Max TemperatureF,Mean TemperatureF,Min TemperatureF,Max Dew PointF,MeanDew PointF,Min DewpointF,Max Humidity, Mean Humidity, Min Humidity, Max Sea Level PressureIn, Mean Sea Level PressureIn, Min Sea Level PressureIn, Max VisibilityMiles, Mean VisibilityMiles, Min VisibilityMiles, Max Wind SpeedMPH, Mean Wind SpeedMPH, Max Gust SpeedMPH,PrecipitationIn, CloudCover, Events, WindDirDegrees
2013-5-1,72,57,41,39,32,23,86,53,19,30.42,30.37,30.31,10,10,10,13,3,,0.00,0,,101
2013-5-2,74,58,41,43,38,37,82,55,27,30.45,30.38,30.30,10,10,10,14,4,18,0.00,0,,115
2013-5-3,71,58,45,43,38,32,89,59,28,30.40,30.32,30.25,10,10,10,17,6,25,0.00,0,,140
2013-5-4,74,57,40,41,37,33,79,53,27,30.33,30.25,30.14,10,10,10,15,3,21,0.00,0,,127
2013-5-5,74,58,42,43,34,21,83,49,15,30.23,30.18,30.10,10,10,10,17,5,22,0.00,0,,124
2013-5-6,72,56,40,51,43,36,86,64,41,30.21,30.15,30.07,10,10,10,14,4,17,0.00,1,,91
2013-5-7,78,64,49,53,49,45,89,60,30,30.12,30.06,29.99,10,10,10,18,7,24,T,2,Rain,92
2013-5-8,63,59,55,59,56,51,100,90,80,30.04,29.98,29.93,10,7,1,10,2,13,0.86,8,Rain-Thunderstorm,98
2013-5-9,68,60,51,58,53,49,96,80,63,29.98,29.93,29.91,10,10,5,10,3,14,0.09,6,Rain,274
2013-5-10,72,63,54,60,57,53,100,81,61,30.01,29.95,29.83,10,5,0,21,6,29,0.27,7,Fog-Rain-Thunderstorm,172
2013-5-11,69,63,57,61,57,43,100,76,52,29.81,29.74,29.71,10,8,1,21,7,29,0.45,8,Rain,259
2013-5-12,58,48,37,46,35,25,86,58,30,29.97,29.83,29.73,10,10,3,30,11,40,0.06,4,Rain,271
2013-5-13,53,44,34,33,26,22,82,57,32,30.17,30.06,29.98,10,10,10,17,8,24,T,5,,295
2013-5-14,62,46,30,40,27,19,92,56,20,30.20,30.12,30.01,10,10,10,14,5,18,0.00,2,,274
2013-5-15,75,62,49,58,47,38,93,71,49,30.02,29.81,29.62,10,10,10,16,6,29,T,3,Rain,102
2013-5-16,84,68,51,55,45,33,96,57,18,29.93,29.80,29.75,10,10,2,20,6,29,0.00,1,,289
2013-5-17,74,61,48,46,39,36,66,46,25,30.20,30.09,29.94,10,10,10,10,2,15,0.00,0,,7
2013-5-18,67,60,53,52,47,42,72,60,48,30.24,30.21,30.18,10,10,10,15,5,26,T,7,,79
2013-5-19,64,61,58,59,55,50,97,85,72,30.22,30.17,30.12,10,9,2,12,7,17,0.00,8,,82
2013-5-20,80,70,60,64,61,56,93,76,58,30.10,30.03,29.94,10,9,5,13,4,,0.00,5,,111
2013-5-21,88,74,59,68,63,57,97,70,43,29.97,29.89,29.77,10,7,2,20,6,29,0.00,2,,156
2013-5-22,89,77,65,66,63,57,93,66,39,29.87,29.82,29.73,10,8,2,29,5,41,0.23,4,Rain-Thunderstorm,134
2013-5-23,75,69,62,66,62,58,93,79,64,29.84,29.79,29.70,10,9,1,29,5,40,0.42,6,Rain-Thunderstorm,129
2013-5-24,62,54,45,61,44,34,93,74,54,30.12,29.94,29.71,10,9,5,22,11,32,0.16,8,Rain,304
2013-5-25,62,52,42,35,32,29,76,53,29,30.14,30.11,30.06,10,10,10,23,14,35,0.00,3,,300
2013-5-26,69,56,43,36,32,26,70,46,22,30.23,30.13,30.09,10,10,10,21,10,29,0.00,0,,297
2013-5-27,73,55,37,45,37,31,85,55,24,30.30,30.22,30.13,10,10,10,10,3,15,0.00,1,,251
2013-5-28,61,56,51,57,51,44,93,82,71,30.18,30.13,30.07,10,7,2,14,5,24,0.33,7,Rain,73
2013-5-29,86,73,59,68,61,57,97,72,47,30.08,30.04,29.98,10,4,1,21,4,26,0.35,6,Rain,111
2013-5-30,91,75,59,66,61,57,93,65,37,30.15,30.11,30.06,10,7,1,13,3,16,0.00,0,,242
2013-5-31,90,77,63,69,63,54,93,65,37,30.13,30.05,29.96,10,8,4,15,4,23,0.00,0,,153